ASTRID 2

Satellite information

Favourite Embed

Satellite Type and Status

PAYLOADIN ORBIT

Key statistics

Satellite ASTRID 2 at a glance.

Uptime

9768

Days in orbit

Revolutions

≈ 13.7

Per day

Orbit

LEO

Low Earth Orbit

Inclination

82.9

Latest

Satellite identification and parameters

Extended collection of information and parameters for ASTRID 2.

Object identification

Identified? True

Debris? False

Object name: ASTRID 2

International designator: 1998-072B

Object number (NORAD): 25568

Object ID (CCSDS): 25568

Country: SWEDEN (SWED)

Current information (Y/N): Y

RCS size: MEDIUM

Orbital parameters

Period: 104.875 minutes

Inclination: 82.9476 deg

SMA: 7366.71 km

Apoapsis: 1007.52 km

Periapsis: 969.63 km

RAAN: 293.5744 deg

Eccentricy: 0.00257174

Argument of periapsis: 153.3229 deg

Mean anomaly: 20.3415 deg

Mean motion: 13.73069171 rev/day

Mean motion (dot): 0.00000163 rev/day2

B* drag term: 0.00015940212 1/REarth

Two-line elements (TLE)

Creation date: Sept. 6, 2025, 2:09 a.m.

Reference frame: TEME

Reference center: EARTH

Epoch: Sept. 5, 2025, 9:38 p.m. UTC

TLE line 0: 0 ASTRID 2

TLE line 1: 1 25568U 98072B 25248.90149322 .00000163 00000-0 15940-3 0 9995

TLE line 2: 2 25568 82.9476 293.5744 0025717 153.3229 20.3415 13.73069171338956

Live tracking on map

Real-time ground track for satellite ASTRID 2.

In-orbit conjunctions

There are no conjunctions computed for ASTRID 2, at the moment. Check back to stay up to date, as we update our databases every day.

Go to all conjunctions

Associated space launch

Civilian navigation satellite equivalent to the purely military Parus

ASTRID 2 was lifted into orbit during the mission ‘Kosmos-3M | Nadezhda 8’, on board a Kosmos-3M space rocket.

The launch took place on Dec. 10, 1998, 11:57 a.m. from 132/1 (132L).

For more information about the launch, click the button.

Launch to space Kosmos-3M | Nadezhda 8
Kosmos-3M | Nadezhda 8

Agency: N/A

Status: Launch Successful

Launch date: Dec. 10, 1998, 11:57 a.m. UTC

Rocket: Kosmos-3M

Launch pad: 132/1 (132L)

Location: Plesetsk Cosmodrome, Russian Federation

...

Latest news about this satellite

There are no fresh news available about this satellite. Check back as we update our databases every day.


Newsletter sign-up

Weekly statistics, charts and insights to help you stay on top of the space industry.